Time,TemperatureF,DewpointF,PressureIn,WindDirection,WindDirectionDegrees,WindSpeedMPH,WindSpeedGustMPH,Humidity,HourlyPrecipIn,Conditions,Clouds,dailyrainin,SoftwareType,DateUTC
2013-02-25 00:00:00,32.2,24.5,30.05,ESE,117,0.0,0.0,73,0.00,,,0.00,WeatherCatV1.11B39,2013-02-25 05:00:00,
2013-02-25 00:05:00,31.9,23.9,30.06,ESE,117,0.0,0.0,72,0.00,,,0.00,WeatherCatV1.11B39,2013-02-25 05:05:00,
2013-02-25 00:10:00,31.6,24.3,30.05,ESE,117,0.0,0.0,74,0.00,,,0.00,WeatherCatV1.11B39,2013-02-25 05:10:00,
2013-02-25 00:15:00,31.3,24.6,30.05,ESE,117,0.0,0.0,76,0.00,,,0.00,WeatherCatV1.11B39,2013-02-25 05:15:00,
2013-02-25 00:20:00,31.0,24.7,30.05,ESE,117,0.0,0.0,77,0.00,,,0.00,WeatherCatV1.11B39,2013-02-25 05:20:00,
2013-02-25 00:25:00,30.6,24.9,30.05,ESE,117,0.0,0.0,79,0.00,,,0.00,WeatherCatV1.11B39,2013-02-25 05:25:00,
2013-02-25 00:30:00,30.2,24.5,30.05,ESE,117,0.0,0.0,79,0.00,,,0.00,WeatherCatV1.11B39,2013-02-25 05:30:00,
2013-02-25 00:35:00,30.1,24.4,30.05,ESE,117,0.0,0.0,79,0.00,,,0.00,WeatherCatV1.11B39,2013-02-25 05:35:00,
2013-02-25 00:40:00,30.0,24.6,30.05,ESE,117,0.0,0.0,80,0.00,,,0.00,WeatherCatV1.11B39,2013-02-25 05:40:00,
2013-02-25 00:45:00,29.8,24.7,30.05,ESE,117,0.0,0.0,81,0.00,,,0.00,WeatherCatV1.11B39,2013-02-25 05:45:00,
2013-02-25 00:50:00,29.6,24.5,30.06,ESE,117,0.0,0.0,81,0.00,,,0.00,WeatherCatV1.11B39,2013-02-25 05:50:00,
2013-02-25 00:53:00,29.5,24.4,30.06,ESE,117,0.0,0.0,81,0.00,,,0.00,WeatherCatV1.11B39,2013-02-25 05:53:00,
2013-02-25 00:58:00,29.2,24.4,30.06,ESE,117,0.0,0.0,82,0.00,,,0.00,WeatherCatV1.11B39,2013-02-25 05:58:00,
2013-02-25 01:03:00,29.3,24.8,30.06,ESE,117,0.0,0.0,83,0.00,,,0.00,WeatherCatV1.11B39,2013-02-25 06:03:00,
2013-02-25 01:08:00,29.6,24.8,30.05,ESE,117,0.0,0.0,82,0.00,,,0.00,WeatherCatV1.11B39,2013-02-25 06:08:00,
2013-02-25 01:13:00,29.4,24.6,30.05,ESE,117,0.0,0.0,82,0.00,,,0.00,WeatherCatV1.11B39,2013-02-25 06:13:00,
2013-02-25 01:18:00,29.4,24.6,30.05,ESE,117,0.0,0.0,82,0.00,,,0.00,WeatherCatV1.11B39,2013-02-25 06:18:00,
2013-02-25 01:23:00,29.4,24.6,30.06,ESE,117,0.0,0.0,82,0.00,,,0.00,WeatherCatV1.11B39,2013-02-25 06:23:00,
2013-02-25 01:28:00,29.4,24.6,30.06,ESE,117,0.0,0.0,82,0.00,,,0.00,WeatherCatV1.11B39,2013-02-25 06:28:00,
2013-02-25 01:33:00,29.3,24.8,30.06,ESE,117,0.0,0.0,83,0.00,,,0.00,WeatherCatV1.11B39,2013-02-25 06:33:00,
2013-02-25 01:38:00,29.5,25.0,30.06,ESE,117,0.0,0.0,83,0.00,,,0.00,WeatherCatV1.11B39,2013-02-25 06:38:00,
2013-02-25 01:43:00,29.7,24.9,30.06,ESE,117,0.0,0.0,82,0.00,,,0.00,WeatherCatV1.11B39,2013-02-25 06:43:00,
2013-02-25 01:48:00,29.7,24.6,30.05,ESE,117,0.0,0.0,81,0.00,,,0.00,WeatherCatV1.11B39,2013-02-25 06:48:00,
2013-02-25 01:53:00,29.8,24.7,30.05,ESE,117,0.0,0.0,81,0.00,,,0.00,WeatherCatV1.11B39,2013-02-25 06:53:00,
2013-02-25 01:58:00,29.3,24.5,30.05,ESE,117,0.0,0.0,82,0.00,,,0.00,WeatherCatV1.11B39,2013-02-25 06:58:00,
2013-02-25 02:03:00,29.0,24.5,30.05,ESE,117,0.0,0.0,83,0.00,,,0.00,WeatherCatV1.11B39,2013-02-25 07:03:00,
2013-02-25 02:08:00,28.9,24.4,30.05,ESE,117,0.0,0.0,83,0.00,,,0.00,WeatherCatV1.11B39,2013-02-25 07:08:00,
2013-02-25 02:13:00,28.6,24.1,30.05,ESE,117,0.0,0.0,83,0.00,,,0.00,WeatherCatV1.11B39,2013-02-25 07:13:00,
2013-02-25 02:18:00,28.3,24.1,30.05,ESE,117,0.0,0.0,84,0.00,,,0.00,WeatherCatV1.11B39,2013-02-25 07:18:00,
2013-02-25 02:23:00,28.2,24.3,30.05,ESE,117,0.0,0.0,85,0.00,,,0.00,WeatherCatV1.11B39,2013-02-25 07:23:00,
2013-02-25 02:28:00,28.0,24.1,30.05,ESE,117,0.0,0.0,85,0.00,,,0.00,WeatherCatV1.11B39,2013-02-25 07:28:00,
2013-02-25 02:33:00,28.0,24.4,30.04,ESE,117,0.0,0.0,86,0.00,,,0.00,WeatherCatV1.11B39,2013-02-25 07:33:00,
2013-02-25 02:38:00,28.3,24.7,30.04,ESE,117,0.0,0.0,86,0.00,,,0.00,WeatherCatV1.11B39,2013-02-25 07:38:00,
2013-02-25 02:43:00,28.7,24.8,30.05,ESE,117,0.0,0.0,85,0.00,,,0.00,WeatherCatV1.11B39,2013-02-25 07:43:00,
2013-02-25 02:48:00,28.6,24.4,30.05,ESE,117,0.0,0.0,84,0.00,,,0.00,WeatherCatV1.11B39,2013-02-25 07:48:00,
2013-02-25 02:53:00,28.6,24.4,30.05,ESE,117,0.0,0.0,84,0.00,,,0.00,WeatherCatV1.11B39,2013-02-25 07:53:00,
2013-02-25 02:58:00,28.7,24.5,30.05,ESE,117,0.0,0.0,84,0.00,,,0.00,WeatherCatV1.11B39,2013-02-25 07:58:00,
2013-02-25 03:03:00,28.7,24.5,30.06,ESE,117,0.0,0.0,84,0.00,,,0.00,WeatherCatV1.11B39,2013-02-25 08:03:00,
2013-02-25 03:08:00,28.7,24.8,30.07,ESE,117,0.0,0.0,85,0.00,,,0.00,WeatherCatV1.11B39,2013-02-25 08:08:00,
2013-02-25 03:13:00,28.6,24.7,30.06,ESE,117,0.0,0.0,85,0.00,,,0.00,WeatherCatV1.11B39,2013-02-25 08:13:00,
2013-02-25 03:18:00,28.6,25.0,30.06,ESE,117,0.0,0.0,86,0.00,,,0.00,WeatherCatV1.11B39,2013-02-25 08:18:00,
2013-02-25 03:23:00,28.6,25.0,30.05,ESE,117,0.0,0.0,86,0.00,,,0.00,WeatherCatV1.11B39,2013-02-25 08:23:00,
2013-02-25 03:28:00,28.7,25.1,30.05,ESE,117,0.0,0.0,86,0.00,,,0.00,WeatherCatV1.11B39,2013-02-25 08:28:00,
2013-02-25 03:33:00,28.9,25.0,30.04,ESE,117,0.0,0.0,85,0.00,,,0.00,WeatherCatV1.11B39,2013-02-25 08:33:00,
2013-02-25 03:38:00,28.8,25.2,30.04,ESE,117,0.0,0.0,86,0.00,,,0.00,WeatherCatV1.11B39,2013-02-25 08:38:00,
2013-02-25 03:43:00,28.7,24.8,30.03,ESE,117,0.0,0.0,85,0.00,,,0.00,WeatherCatV1.11B39,2013-02-25 08:43:00,
2013-02-25 03:48:00,28.8,24.9,30.03,ESE,117,0.0,0.0,85,0.00,,,0.00,WeatherCatV1.11B39,2013-02-25 08:48:00,
2013-02-25 03:53:00,28.8,24.9,30.03,ESE,117,0.0,0.0,85,0.00,,,0.00,WeatherCatV1.11B39,2013-02-25 08:53:00,
2013-02-25 03:58:00,28.6,24.7,30.03,ESE,117,0.0,0.0,85,0.00,,,0.00,WeatherCatV1.11B39,2013-02-25 08:58:00,
2013-02-25 04:03:00,28.5,24.9,30.03,ESE,117,0.0,0.0,86,0.00,,,0.00,WeatherCatV1.11B39,2013-02-25 09:03:00,
2013-02-25 04:08:00,28.5,24.9,30.04,ESE,117,0.0,0.0,86,0.00,,,0.00,WeatherCatV1.11B39,2013-02-25 09:08:00,
2013-02-25 04:13:00,28.5,24.9,30.04,ESE,117,0.0,0.0,86,0.00,,,0.00,WeatherCatV1.11B39,2013-02-25 09:13:00,
2013-02-25 04:18:00,28.5,24.9,30.04,ESE,117,0.0,0.0,86,0.00,,,0.00,WeatherCatV1.11B39,2013-02-25 09:18:00,
2013-02-25 04:23:00,28.5,24.9,30.04,ESE,117,0.0,0.0,86,0.00,,,0.00,WeatherCatV1.11B39,2013-02-25 09:23:00,
2013-02-25 04:28:00,28.5,24.9,30.04,ESE,117,0.0,0.0,86,0.00,,,0.00,WeatherCatV1.11B39,2013-02-25 09:28:00,
2013-02-25 04:33:00,28.4,24.8,30.04,ESE,117,0.0,0.0,86,0.00,,,0.00,WeatherCatV1.11B39,2013-02-25 09:33:00,
2013-02-25 04:38:00,28.3,24.7,30.05,ESE,117,0.0,0.0,86,0.00,,,0.00,WeatherCatV1.11B39,2013-02-25 09:38:00,
2013-02-25 04:43:00,28.3,24.9,30.04,ESE,117,0.0,0.0,87,0.00,,,0.00,WeatherCatV1.11B39,2013-02-25 09:43:00,
2013-02-25 04:48:00,28.6,25.2,30.05,ESE,117,0.0,0.0,87,0.00,,,0.00,WeatherCatV1.11B39,2013-02-25 09:48:00,
2013-02-25 04:53:00,28.8,25.4,30.05,ESE,117,0.0,0.0,87,0.00,,,0.00,WeatherCatV1.11B39,2013-02-25 09:53:00,
2013-02-25 04:58:00,28.8,25.4,30.05,ESE,117,0.0,0.0,87,0.00,,,0.00,WeatherCatV1.11B39,2013-02-25 09:58:00,
2013-02-25 05:03:00,28.8,25.2,30.06,ESE,117,0.0,0.0,86,0.00,,,0.00,WeatherCatV1.11B39,2013-02-25 10:03:00,
2013-02-25 05:08:00,28.6,25.0,30.06,ESE,117,0.0,0.0,86,0.00,,,0.00,WeatherCatV1.11B39,2013-02-25 10:08:00,
2013-02-25 05:13:00,28.5,24.9,30.06,ESE,117,0.0,0.0,86,0.00,,,0.00,WeatherCatV1.11B39,2013-02-25 10:13:00,
2013-02-25 05:18:00,28.6,25.2,30.06,ESE,117,0.0,0.0,87,0.00,,,0.00,WeatherCatV1.11B39,2013-02-25 10:18:00,
2013-02-25 05:23:00,28.8,25.4,30.06,ESE,117,0.0,0.0,87,0.00,,,0.00,WeatherCatV1.11B39,2013-02-25 10:23:00,
2013-02-25 05:28:00,28.9,25.5,30.06,ESE,117,0.0,0.0,87,0.00,,,0.00,WeatherCatV1.11B39,2013-02-25 10:28:00,
2013-02-25 05:33:00,28.9,25.5,30.06,ESE,117,0.0,0.0,87,0.00,,,0.00,WeatherCatV1.11B39,2013-02-25 10:33:00,
2013-02-25 05:38:00,28.9,25.5,30.06,ESE,117,0.0,0.0,87,0.00,,,0.00,WeatherCatV1.11B39,2013-02-25 10:38:00,
2013-02-25 05:43:00,28.9,25.2,30.06,ESE,117,0.0,0.0,86,0.00,,,0.00,WeatherCatV1.11B39,2013-02-25 10:43:00,
2013-02-25 05:48:00,29.0,25.3,30.06,ESE,117,0.0,0.0,86,0.00,,,0.00,WeatherCatV1.11B39,2013-02-25 10:48:00,
2013-02-25 05:53:00,28.9,25.2,30.06,ESE,117,0.0,0.0,86,0.00,,,0.00,WeatherCatV1.11B39,2013-02-25 10:53:00,
2013-02-25 05:58:00,28.9,25.2,30.07,ESE,117,0.0,0.0,86,0.00,,,0.00,WeatherCatV1.11B39,2013-02-25 10:58:00,
2013-02-25 06:03:00,28.8,25.4,30.07,ESE,117,0.0,0.0,87,0.00,,,0.00,WeatherCatV1.11B39,2013-02-25 11:03:00,
2013-02-25 06:08:00,28.9,25.5,30.07,ESE,117,0.0,0.0,87,0.00,,,0.00,WeatherCatV1.11B39,2013-02-25 11:08:00,
2013-02-25 06:13:00,28.9,25.5,30.07,ESE,117,0.0,0.0,87,0.00,,,0.00,WeatherCatV1.11B39,2013-02-25 11:13:00,
2013-02-25 06:18:00,29.0,25.3,30.07,ESE,117,0.0,0.0,86,0.00,,,0.00,WeatherCatV1.11B39,2013-02-25 11:18:00,
2013-02-25 06:23:00,29.2,25.8,30.07,ESE,117,0.0,0.0,87,0.00,,,0.00,WeatherCatV1.11B39,2013-02-25 11:23:00,
2013-02-25 06:28:00,29.2,25.5,30.07,ESE,117,0.0,0.0,86,0.00,,,0.00,WeatherCatV1.11B39,2013-02-25 11:28:00,
2013-02-25 06:33:00,29.2,25.5,30.07,ESE,117,0.0,0.0,86,0.00,,,0.00,WeatherCatV1.11B39,2013-02-25 11:33:00,
2013-02-25 06:38:00,29.2,25.5,30.08,ESE,117,0.0,0.0,86,0.00,,,0.00,WeatherCatV1.11B39,2013-02-25 11:38:00,
2013-02-25 06:43:00,29.2,25.5,30.08,ESE,117,0.0,0.0,86,0.00,,,0.00,WeatherCatV1.11B39,2013-02-25 11:43:00,
2013-02-25 06:48:00,29.1,25.4,30.08,ESE,117,0.0,0.0,86,0.00,,,0.00,WeatherCatV1.11B39,2013-02-25 11:48:00,
2013-02-25 06:53:00,29.1,25.4,30.08,ESE,117,0.0,0.0,86,0.00,,,0.00,WeatherCatV1.11B39,2013-02-25 11:53:00,
2013-02-25 06:58:00,29.1,25.4,30.09,ESE,117,0.0,0.0,86,0.00,,,0.00,WeatherCatV1.11B39,2013-02-25 11:58:00,
2013-02-25 07:03:00,29.2,25.5,30.09,ESE,117,0.0,0.0,86,0.00,,,0.00,WeatherCatV1.11B39,2013-02-25 12:03:00,
2013-02-25 07:08:00,29.3,25.6,30.09,ESE,117,0.0,0.0,86,0.00,,,0.00,WeatherCatV1.11B39,2013-02-25 12:08:00,
2013-02-25 07:13:00,29.3,25.6,30.09,ESE,117,0.0,0.0,86,0.00,,,0.00,WeatherCatV1.11B39,2013-02-25 12:13:00,
2013-02-25 07:18:00,29.4,25.5,30.09,ESE,117,0.0,0.0,85,0.00,,,0.00,WeatherCatV1.11B39,2013-02-25 12:18:00,
2013-02-25 07:23:00,29.5,25.8,30.09,ESE,117,0.0,0.0,86,0.00,,,0.00,WeatherCatV1.11B39,2013-02-25 12:23:00,
2013-02-25 07:28:00,29.6,25.7,30.09,ESE,117,0.0,0.0,85,0.00,,,0.00,WeatherCatV1.11B39,2013-02-25 12:28:00,
2013-02-25 07:33:00,29.8,25.9,30.10,ESE,117,0.0,0.0,85,0.00,,,0.00,WeatherCatV1.11B39,2013-02-25 12:33:00,
2013-02-25 07:38:00,29.9,26.0,30.09,ESE,117,0.0,0.0,85,0.00,,,0.00,WeatherCatV1.11B39,2013-02-25 12:38:00,
2013-02-25 07:43:00,30.0,26.0,30.10,ESE,117,0.0,0.0,85,0.00,,,0.00,WeatherCatV1.11B39,2013-02-25 12:43:00,
2013-02-25 07:48:00,29.9,26.0,30.10,ESE,117,0.0,0.0,85,0.00,,,0.00,WeatherCatV1.11B39,2013-02-25 12:48:00,
2013-02-25 07:51:00,30.0,26.0,30.10,ESE,117,0.0,0.0,85,0.00,,,0.00,WeatherCatV1.11B39,2013-02-25 12:51:00,
2013-02-25 07:56:00,30.1,26.1,30.10,ESE,117,0.0,0.0,85,0.00,,,0.00,WeatherCatV1.11B39,2013-02-25 12:56:00,
2013-02-25 08:01:00,30.4,26.4,30.11,ESE,117,0.0,0.0,85,0.00,,,0.00,WeatherCatV1.11B39,2013-02-25 13:01:00,
2013-02-25 08:06:00,30.5,26.5,30.12,ESE,117,0.0,0.0,85,0.00,,,0.00,WeatherCatV1.11B39,2013-02-25 13:06:00,
2013-02-25 08:11:00,30.8,26.5,30.12,ESE,117,0.0,0.0,84,0.00,,,0.00,WeatherCatV1.11B39,2013-02-25 13:11:00,
2013-02-25 08:16:00,31.0,26.5,30.12,ESE,117,0.0,0.0,83,0.00,,,0.00,WeatherCatV1.11B39,2013-02-25 13:16:00,
2013-02-25 08:21:00,31.3,26.5,30.12,ESE,117,0.0,0.0,82,0.00,,,0.00,WeatherCatV1.11B39,2013-02-25 13:21:00,
2013-02-25 08:26:00,31.6,26.7,30.12,ESE,117,0.0,0.0,82,0.00,,,0.00,WeatherCatV1.11B39,2013-02-25 13:26:00,
2013-02-25 08:31:00,31.8,26.6,30.12,ESE,117,0.0,0.0,81,0.00,,,0.00,WeatherCatV1.11B39,2013-02-25 13:31:00,
2013-02-25 08:36:00,32.1,26.9,30.12,ESE,117,0.0,0.0,81,0.00,,,0.00,WeatherCatV1.11B39,2013-02-25 13:36:00,
2013-02-25 08:41:00,32.4,27.2,30.12,ESE,117,0.0,0.0,81,0.00,,,0.00,WeatherCatV1.11B39,2013-02-25 13:41:00,
2013-02-25 08:46:00,32.6,27.1,30.12,ESE,117,0.0,0.0,80,0.00,,,0.00,WeatherCatV1.11B39,2013-02-25 13:46:00,
2013-02-25 08:51:00,33.0,26.9,30.13,NE,53,3.0,3.0,78,0.00,,,0.00,WeatherCatV1.11B39,2013-02-25 13:51:00,
2013-02-25 08:56:00,34.3,27.2,30.13,NE,50,1.0,2.0,75,0.00,,,0.00,WeatherCatV1.11B39,2013-02-25 13:56:00,
2013-02-25 09:00:00,34.5,27.7,30.13,East,94,0.0,1.0,76,0.00,,,0.00,WeatherCatV1.11B39,2013-02-25 14:00:00,
2013-02-25 09:05:00,34.1,28.3,30.13,East,94,0.0,0.0,79,0.00,,,0.00,WeatherCatV1.11B39,2013-02-25 14:05:00,
2013-02-25 09:10:00,34.1,27.3,30.14,ESE,121,0.0,1.0,76,0.00,,,0.00,WeatherCatV1.11B39,2013-02-25 14:10:00,
2013-02-25 09:15:00,34.3,27.9,30.14,ESE,121,0.0,0.0,77,0.00,,,0.00,WeatherCatV1.11B39,2013-02-25 14:15:00,
2013-02-25 09:20:00,34.3,28.5,30.14,ESE,121,0.0,0.0,79,0.00,,,0.00,WeatherCatV1.11B39,2013-02-25 14:20:00,
2013-02-25 09:25:00,35.0,24.4,30.14,ESE,108,0.0,1.0,65,0.00,,,0.00,WeatherCatV1.11B39,2013-02-25 14:25:00,
2013-02-25 09:30:00,36.6,24.0,30.14,ENE,76,0.0,5.0,60,0.00,,,0.00,WeatherCatV1.11B39,2013-02-25 14:30:00,
2013-02-25 09:35:00,37.5,24.9,30.14,ESE,115,0.0,1.0,60,0.00,,,0.00,WeatherCatV1.11B39,2013-02-25 14:35:00,
2013-02-25 09:40:00,37.8,25.6,30.14,ESE,115,0.0,0.0,61,0.00,,,0.00,WeatherCatV1.11B39,2013-02-25 14:40:00,
2013-02-25 09:45:00,38.1,25.1,30.13,SE,133,0.0,3.0,59,0.00,,,0.00,WeatherCatV1.11B39,2013-02-25 14:45:00,
2013-02-25 09:50:00,38.3,24.8,30.13,ESE,103,0.0,1.0,58,0.00,,,0.00,WeatherCatV1.11B39,2013-02-25 14:50:00,
2013-02-25 09:55:00,38.6,25.5,30.13,SE,132,0.0,1.0,59,0.00,,,0.00,WeatherCatV1.11B39,2013-02-25 14:55:00,
2013-02-25 10:00:00,38.7,25.6,30.14,ESE,104,0.0,0.0,59,0.00,,,0.00,WeatherCatV1.11B39,2013-02-25 15:00:00,
2013-02-25 10:05:00,38.9,25.8,30.13,ESE,104,0.0,0.0,59,0.00,,,0.00,WeatherCatV1.11B39,2013-02-25 15:05:00,
2013-02-25 10:10:00,38.9,25.0,30.14,SE,144,1.0,1.0,57,0.00,,,0.00,WeatherCatV1.11B39,2013-02-25 15:10:00,
2013-02-25 10:15:00,39.1,23.9,30.14,ESE,105,2.0,4.0,54,0.00,,,0.00,WeatherCatV1.11B39,2013-02-25 15:15:00,
2013-02-25 10:20:00,39.1,24.7,30.14,SE,142,0.0,0.0,56,0.00,,,0.00,WeatherCatV1.11B39,2013-02-25 15:20:00,
2013-02-25 10:25:00,39.3,24.5,30.14,SE,141,0.0,1.0,55,0.00,,,0.00,WeatherCatV1.11B39,2013-02-25 15:25:00,
2013-02-25 10:30:00,39.3,23.6,30.14,SSE,160,0.0,1.0,53,0.00,,,0.00,WeatherCatV1.11B39,2013-02-25 15:30:00,
2013-02-25 10:35:00,39.5,24.7,30.13,SE,138,0.0,3.0,55,0.00,,,0.00,WeatherCatV1.11B39,2013-02-25 15:35:00,
2013-02-25 10:40:00,39.5,23.8,30.14,SSW,199,0.0,2.0,53,0.00,,,0.00,WeatherCatV1.11B39,2013-02-25 15:40:00,
2013-02-25 10:45:00,39.5,22.4,30.14,SE,126,0.0,4.0,50,0.00,,,0.00,WeatherCatV1.11B39,2013-02-25 15:45:00,
2013-02-25 10:50:00,39.6,22.5,30.14,SE,126,0.0,1.0,50,0.00,,,0.00,WeatherCatV1.11B39,2013-02-25 15:50:00,
2013-02-25 10:55:00,39.9,22.8,30.14,ENE,69,0.0,2.0,50,0.00,,,0.00,WeatherCatV1.11B39,2013-02-25 15:55:00,
2013-02-25 11:00:00,40.1,23.4,30.14,ESE,117,0.0,4.0,51,0.00,,,0.00,WeatherCatV1.11B39,2013-02-25 16:00:00,
2013-02-25 11:05:00,40.1,23.4,30.14,SSE,153,0.0,0.0,51,0.00,,,0.00,WeatherCatV1.11B39,2013-02-25 16:05:00,
2013-02-25 11:10:00,40.2,23.1,30.13,ENE,76,0.0,0.0,50,0.00,,,0.00,WeatherCatV1.11B39,2013-02-25 16:10:00,
2013-02-25 11:15:00,40.4,23.2,30.13,SE,144,0.0,0.0,50,0.00,,,0.00,WeatherCatV1.11B39,2013-02-25 16:15:00,
2013-02-25 11:20:00,40.7,22.6,30.12,SE,136,0.0,2.0,48,0.00,,,0.00,WeatherCatV1.11B39,2013-02-25 16:20:00,
2013-02-25 11:25:00,40.7,23.0,30.12,SE,127,0.0,3.0,49,0.00,,,0.00,WeatherCatV1.11B39,2013-02-25 16:25:00,
2013-02-25 11:30:00,40.9,22.2,30.12,ENE,68,0.0,11.0,47,0.00,,,0.00,WeatherCatV1.11B39,2013-02-25 16:30:00,
2013-02-25 11:35:00,41.1,22.9,30.12,East,86,1.0,1.0,48,0.00,,,0.00,WeatherCatV1.11B39,2013-02-25 16:35:00,
2013-02-25 11:40:00,41.3,24.1,30.12,East,101,0.0,2.0,50,0.00,,,0.00,WeatherCatV1.11B39,2013-02-25 16:40:00,
2013-02-25 11:45:00,41.6,22.4,30.12,NNW,347,1.0,6.0,46,0.00,,,0.00,WeatherCatV1.11B39,2013-02-25 16:45:00,
2013-02-25 11:50:00,41.5,23.3,30.13,South,169,0.0,3.0,48,0.00,,,0.00,WeatherCatV1.11B39,2013-02-25 16:50:00,
2013-02-25 11:55:00,41.7,23.0,30.13,WNW,291,0.0,2.0,47,0.00,,,0.00,WeatherCatV1.11B39,2013-02-25 16:55:00,
2013-02-25 12:00:00,41.4,22.7,30.12,SE,146,0.0,1.0,47,0.00,,,0.00,WeatherCatV1.11B39,2013-02-25 17:00:00,
2013-02-25 12:05:00,41.5,23.3,30.12,ESE,121,1.0,1.0,48,0.00,,,0.00,WeatherCatV1.11B39,2013-02-25 17:05:00,
2013-02-25 12:10:00,41.7,23.5,30.12,NE,48,1.0,3.0,48,0.00,,,0.00,WeatherCatV1.11B39,2013-02-25 17:10:00,
2013-02-25 12:15:00,41.9,23.2,30.11,ESE,119,0.0,0.0,47,0.00,,,0.00,WeatherCatV1.11B39,2013-02-25 17:15:00,
2013-02-25 12:20:00,42.2,24.4,30.12,ENE,65,4.0,5.0,49,0.00,,,0.00,WeatherCatV1.11B39,2013-02-25 17:20:00,
2013-02-25 12:25:00,41.9,23.2,30.12,ESE,122,1.0,1.0,47,0.00,,,0.00,WeatherCatV1.11B39,2013-02-25 17:25:00,
2013-02-25 12:30:00,41.7,23.0,30.12,East,87,0.0,2.0,47,0.00,,,0.00,WeatherCatV1.11B39,2013-02-25 17:30:00,
2013-02-25 12:35:00,42.0,24.2,30.12,SE,142,1.0,2.0,49,0.00,,,0.00,WeatherCatV1.11B39,2013-02-25 17:35:00,
2013-02-25 12:40:00,42.1,22.8,30.11,ESE,113,1.0,1.0,46,0.00,,,0.00,WeatherCatV1.11B39,2013-02-25 17:40:00,
2013-02-25 12:45:00,42.3,25.0,30.10,SSE,148,0.0,0.0,50,0.00,,,0.00,WeatherCatV1.11B39,2013-02-25 17:45:00,
2013-02-25 12:50:00,42.7,24.4,30.09,ESE,122,0.0,0.0,48,0.00,,,0.00,WeatherCatV1.11B39,2013-02-25 17:50:00,
2013-02-25 12:55:00,43.0,24.2,30.09,ESE,118,0.0,1.0,47,0.00,,,0.00,WeatherCatV1.11B39,2013-02-25 17:55:00,
2013-02-25 13:00:00,43.2,24.9,30.09,ESE,117,0.0,0.0,48,0.00,,,0.00,WeatherCatV1.11B39,2013-02-25 18:00:00,
2013-02-25 13:05:00,43.4,24.5,30.10,ESE,118,0.0,1.0,47,0.00,,,0.00,WeatherCatV1.11B39,2013-02-25 18:05:00,
2013-02-25 13:10:00,43.6,25.2,30.10,ESE,119,0.0,0.0,48,0.00,,,0.00,WeatherCatV1.11B39,2013-02-25 18:10:00,
2013-02-25 13:15:00,43.2,23.3,30.10,East,95,0.0,3.0,45,0.00,,,0.00,WeatherCatV1.11B39,2013-02-25 18:15:00,
2013-02-25 13:20:00,43.3,24.9,30.10,East,93,0.0,1.0,48,0.00,,,0.00,WeatherCatV1.11B39,2013-02-25 18:20:00,
2013-02-25 13:25:00,43.3,23.9,30.10,SSE,158,1.0,4.0,46,0.00,,,0.00,WeatherCatV1.11B39,2013-02-25 18:25:00,
2013-02-25 13:30:00,43.1,24.8,30.08,ESE,122,0.0,0.0,48,0.00,,,0.00,WeatherCatV1.11B39,2013-02-25 18:30:00,
2013-02-25 13:35:00,42.9,23.6,30.07,SE,132,1.0,2.0,46,0.00,,,0.00,WeatherCatV1.11B39,2013-02-25 18:35:00,
2013-02-25 13:40:00,42.9,24.1,30.08,SE,129,0.0,1.0,47,0.00,,,0.00,WeatherCatV1.11B39,2013-02-25 18:40:00,
2013-02-25 13:45:00,43.1,24.3,30.08,SE,138,1.0,2.0,47,0.00,,,0.00,WeatherCatV1.11B39,2013-02-25 18:45:00,
2013-02-25 13:50:00,43.1,24.3,30.08,SE,131,0.0,1.0,47,0.00,,,0.00,WeatherCatV1.11B39,2013-02-25 18:50:00,
2013-02-25 13:55:00,43.5,25.1,30.07,ESE,116,0.0,1.0,48,0.00,,,0.00,WeatherCatV1.11B39,2013-02-25 18:55:00,
2013-02-25 14:00:00,43.6,24.7,30.07,ESE,114,0.0,2.0,47,0.00,,,0.00,WeatherCatV1.11B39,2013-02-25 19:00:00,
2013-02-25 14:05:00,43.7,23.2,30.08,SE,134,0.0,3.0,44,0.00,,,0.00,WeatherCatV1.11B39,2013-02-25 19:05:00,
2013-02-25 14:11:00,43.6,23.7,30.08,SE,131,2.0,4.0,45,0.00,,,0.00,WeatherCatV1.11B39,2013-02-25 19:11:00,
2013-02-25 14:16:00,43.7,23.8,30.08,ESE,113,0.0,3.0,45,0.00,,,0.00,WeatherCatV1.11B39,2013-02-25 19:16:00,
2013-02-25 14:21:00,44.0,24.0,30.08,ENE,66,0.0,3.0,45,0.00,,,0.00,WeatherCatV1.11B39,2013-02-25 19:21:00,
2013-02-25 14:26:00,44.0,23.5,30.09,East,98,0.0,4.0,44,0.00,,,0.00,WeatherCatV1.11B39,2013-02-25 19:26:00,
2013-02-25 14:31:00,44.1,23.0,30.09,East,84,0.0,2.0,43,0.00,,,0.00,WeatherCatV1.11B39,2013-02-25 19:31:00,
2013-02-25 14:36:00,44.3,24.3,30.09,ESE,102,0.0,0.0,45,0.00,,,0.00,WeatherCatV1.11B39,2013-02-25 19:36:00,
2013-02-25 14:41:00,44.6,23.5,30.08,SE,137,0.0,2.0,43,0.00,,,0.00,WeatherCatV1.11B39,2013-02-25 19:41:00,
2013-02-25 14:46:00,44.6,24.0,30.08,SSE,152,0.0,0.0,44,0.00,,,0.00,WeatherCatV1.11B39,2013-02-25 19:46:00,
2013-02-25 14:51:00,45.1,24.5,30.07,SE,124,0.0,1.0,44,0.00,,,0.00,WeatherCatV1.11B39,2013-02-25 19:51:00,
2013-02-25 14:56:00,45.3,23.6,30.06,ESE,119,0.0,1.0,42,0.00,,,0.00,WeatherCatV1.11B39,2013-02-25 19:56:00,
2013-02-25 15:01:00,45.6,25.0,30.07,ESE,122,0.0,1.0,44,0.00,,,0.00,WeatherCatV1.11B39,2013-02-25 20:01:00,
2013-02-25 15:06:00,45.7,23.4,30.07,ESE,122,0.0,0.0,41,0.00,,,0.00,WeatherCatV1.11B39,2013-02-25 20:06:00,
2013-02-25 15:11:00,45.9,24.1,30.06,East,94,1.0,1.0,42,0.00,,,0.00,WeatherCatV1.11B39,2013-02-25 20:11:00,
2013-02-25 15:16:00,46.4,24.6,30.06,ESE,121,0.0,1.0,42,0.00,,,0.00,WeatherCatV1.11B39,2013-02-25 20:16:00,
2013-02-25 15:21:00,46.7,24.8,30.06,SE,126,0.0,0.0,42,0.00,,,0.00,WeatherCatV1.11B39,2013-02-25 20:21:00,
2013-02-25 15:26:00,47.3,24.2,30.06,ENE,63,0.0,2.0,40,0.00,,,0.00,WeatherCatV1.11B39,2013-02-25 20:26:00,
2013-02-25 15:31:00,47.7,23.4,30.06,ENE,75,0.0,1.0,38,0.00,,,0.00,WeatherCatV1.11B39,2013-02-25 20:31:00,
2013-02-25 15:36:00,48.3,26.3,30.06,ENE,76,0.0,0.0,42,0.00,,,0.00,WeatherCatV1.11B39,2013-02-25 20:36:00,
2013-02-25 15:41:00,48.6,24.2,30.06,SE,131,0.0,1.0,38,0.00,,,0.00,WeatherCatV1.11B39,2013-02-25 20:41:00,
2013-02-25 15:46:00,48.9,24.4,30.06,SE,133,0.0,1.0,38,0.00,,,0.00,WeatherCatV1.11B39,2013-02-25 20:46:00,
2013-02-25 15:51:00,48.7,24.9,30.06,SSE,165,0.0,2.0,39,0.00,,,0.00,WeatherCatV1.11B39,2013-02-25 20:51:00,
2013-02-25 15:56:00,49.1,24.6,30.05,SE,135,1.0,3.0,38,0.00,,,0.00,WeatherCatV1.11B39,2013-02-25 20:56:00,
2013-02-25 16:01:00,49.2,24.7,30.05,SSE,160,1.0,1.0,38,0.00,,,0.00,WeatherCatV1.11B39,2013-02-25 21:01:00,
2013-02-25 16:06:00,49.3,25.4,30.05,SSE,151,0.0,2.0,39,0.00,,,0.00,WeatherCatV1.11B39,2013-02-25 21:06:00,
2013-02-25 16:11:00,49.5,25.6,30.05,SSE,150,0.0,0.0,39,0.00,,,0.00,WeatherCatV1.11B39,2013-02-25 21:11:00,
2013-02-25 16:16:00,49.5,25.0,30.05,ESE,109,0.0,2.0,38,0.00,,,0.00,WeatherCatV1.11B39,2013-02-25 21:16:00,
2013-02-25 16:21:00,49.1,25.2,30.05,SW,223,2.0,3.0,39,0.00,,,0.00,WeatherCatV1.11B39,2013-02-25 21:21:00,
2013-02-25 16:26:00,48.2,26.2,30.05,SSE,150,0.0,0.0,42,0.00,,,0.00,WeatherCatV1.11B39,2013-02-25 21:26:00,
2013-02-25 16:31:00,48.0,26.6,30.05,SE,145,0.0,0.0,43,0.00,,,0.00,WeatherCatV1.11B39,2013-02-25 21:31:00,
2013-02-25 16:36:00,47.7,26.3,30.06,SE,131,0.0,0.0,43,0.00,,,0.00,WeatherCatV1.11B39,2013-02-25 21:36:00,
2013-02-25 16:41:00,47.2,24.1,30.05,SSE,151,0.0,2.0,40,0.00,,,0.00,WeatherCatV1.11B39,2013-02-25 21:41:00,
2013-02-25 16:46:00,46.9,24.4,30.05,ESE,118,0.0,1.0,41,0.00,,,0.00,WeatherCatV1.11B39,2013-02-25 21:46:00,
2013-02-25 16:51:00,46.9,25.6,30.05,ESE,118,1.0,1.0,43,0.00,,,0.00,WeatherCatV1.11B39,2013-02-25 21:51:00,
2013-02-25 16:56:00,47.2,27.0,30.05,ESE,118,0.0,1.0,45,0.00,,,0.00,WeatherCatV1.11B39,2013-02-25 21:56:00,
2013-02-25 17:01:00,47.3,25.4,30.05,SSE,164,0.0,3.0,42,0.00,,,0.00,WeatherCatV1.11B39,2013-02-25 22:01:00,
2013-02-25 17:06:00,47.1,24.6,30.05,SW,223,1.0,4.0,41,0.00,,,0.00,WeatherCatV1.11B39,2013-02-25 22:06:00,
2013-02-25 17:11:00,47.1,26.3,30.04,SSW,212,0.0,1.0,44,0.00,,,0.00,WeatherCatV1.11B39,2013-02-25 22:11:00,
2013-02-25 17:16:00,46.9,26.1,30.04,South,169,1.0,1.0,44,0.00,,,0.00,WeatherCatV1.11B39,2013-02-25 22:16:00,
2013-02-25 17:21:00,46.7,26.0,30.04,SE,133,0.0,0.0,44,0.00,,,0.00,WeatherCatV1.11B39,2013-02-25 22:21:00,
2013-02-25 17:26:00,46.6,25.9,30.04,SSE,154,1.0,2.0,44,0.00,,,0.00,WeatherCatV1.11B39,2013-02-25 22:26:00,
2013-02-25 17:31:00,46.4,26.2,30.03,SW,224,0.0,4.0,45,0.00,,,0.00,WeatherCatV1.11B39,2013-02-25 22:31:00,
2013-02-25 17:36:00,46.1,26.0,30.03,SW,230,3.0,3.0,45,0.00,,,0.00,WeatherCatV1.11B39,2013-02-25 22:36:00,
2013-02-25 17:41:00,45.9,25.8,30.03,SW,228,0.0,3.0,45,0.00,,,0.00,WeatherCatV1.11B39,2013-02-25 22:41:00,
2013-02-25 17:46:00,45.8,26.7,30.03,SSE,162,0.0,0.0,47,0.00,,,0.00,WeatherCatV1.11B39,2013-02-25 22:46:00,
2013-02-25 17:51:00,45.5,25.9,30.03,SE,138,1.0,3.0,46,0.00,,,0.00,WeatherCatV1.11B39,2013-02-25 22:51:00,
2013-02-25 17:56:00,45.5,27.0,30.03,South,172,0.0,0.0,48,0.00,,,0.00,WeatherCatV1.11B39,2013-02-25 22:56:00,
2013-02-25 18:01:00,45.3,25.8,30.03,SE,140,0.0,2.0,46,0.00,,,0.00,WeatherCatV1.11B39,2013-02-25 23:01:00,
2013-02-25 18:06:00,45.0,27.0,30.02,SE,141,0.0,0.0,49,0.00,,,0.00,WeatherCatV1.11B39,2013-02-25 23:06:00,
2013-02-25 18:11:00,44.6,26.6,30.02,SE,141,0.0,0.0,49,0.00,,,0.00,WeatherCatV1.11B39,2013-02-25 23:11:00,
2013-02-25 18:16:00,44.3,26.4,30.02,SE,140,0.0,1.0,49,0.00,,,0.00,WeatherCatV1.11B39,2013-02-25 23:16:00,
2013-02-25 18:21:00,44.2,26.8,30.02,SE,129,0.0,0.0,50,0.00,,,0.00,WeatherCatV1.11B39,2013-02-25 23:21:00,
2013-02-25 18:26:00,44.0,26.6,30.03,SE,129,0.0,0.0,50,0.00,,,0.00,WeatherCatV1.11B39,2013-02-25 23:26:00,
2013-02-25 18:31:00,43.5,26.6,30.03,SE,134,0.0,1.0,51,0.00,,,0.00,WeatherCatV1.11B39,2013-02-25 23:31:00,
2013-02-25 18:36:00,43.1,26.7,30.04,ENE,67,2.0,2.0,52,0.00,,,0.00,WeatherCatV1.11B39,2013-02-25 23:36:00,
2013-02-25 18:41:00,43.4,26.0,30.03,ESE,121,0.0,2.0,50,0.00,,,0.00,WeatherCatV1.11B39,2013-02-25 23:41:00,
2013-02-25 18:46:00,43.2,26.3,30.03,ESE,103,0.0,2.0,51,0.00,,,0.00,WeatherCatV1.11B39,2013-02-25 23:46:00,
2013-02-25 18:51:00,43.0,26.6,30.04,SE,132,0.0,2.0,52,0.00,,,0.00,WeatherCatV1.11B39,2013-02-25 23:51:00,
2013-02-25 18:56:00,42.8,25.9,30.03,East,98,2.0,2.0,51,0.00,,,0.00,WeatherCatV1.11B39,2013-02-25 23:56:00,
2013-02-25 19:01:00,42.7,25.8,30.03,SSE,147,0.0,5.0,51,0.00,,,0.00,WeatherCatV1.11B39,2013-02-26 00:01:00,
2013-02-25 19:06:00,42.5,26.1,30.03,ESE,102,0.0,1.0,52,0.00,,,0.00,WeatherCatV1.11B39,2013-02-26 00:06:00,
2013-02-25 19:11:00,42.5,26.1,30.03,WSW,258,0.0,0.0,52,0.00,,,0.00,WeatherCatV1.11B39,2013-02-26 00:11:00,
2013-02-25 19:16:00,42.5,26.1,30.03,WSW,257,0.0,1.0,52,0.00,,,0.00,WeatherCatV1.11B39,2013-02-26 00:16:00,
2013-02-25 19:21:00,42.5,26.6,30.03,SSW,209,2.0,4.0,53,0.00,,,0.00,WeatherCatV1.11B39,2013-02-26 00:21:00,
2013-02-25 19:26:00,42.5,26.6,30.03,South,175,0.0,1.0,53,0.00,,,0.00,WeatherCatV1.11B39,2013-02-26 00:26:00,
2013-02-25 19:31:00,42.4,26.9,30.03,ENE,70,0.0,2.0,54,0.00,,,0.00,WeatherCatV1.11B39,2013-02-26 00:31:00,
2013-02-25 19:36:00,42.4,26.5,30.03,West,264,0.0,2.0,53,0.00,,,0.00,WeatherCatV1.11B39,2013-02-26 00:36:00,
2013-02-25 19:41:00,42.3,26.4,30.03,WSW,257,0.0,3.0,53,0.00,,,0.00,WeatherCatV1.11B39,2013-02-26 00:41:00,
2013-02-25 19:46:00,42.2,26.3,30.03,West,262,5.0,5.0,53,0.00,,,0.00,WeatherCatV1.11B39,2013-02-26 00:46:00,
2013-02-25 19:51:00,42.1,25.8,30.03,WNW,285,3.0,4.0,52,0.00,,,0.00,WeatherCatV1.11B39,2013-02-26 00:51:00,
2013-02-25 19:56:00,41.9,26.0,30.03,NNW,330,0.0,2.0,53,0.00,,,0.00,WeatherCatV1.11B39,2013-02-26 00:56:00,
2013-02-25 20:01:00,41.7,25.8,30.03,SE,144,0.0,2.0,53,0.00,,,0.00,WeatherCatV1.11B39,2013-02-26 01:01:00,
2013-02-25 20:06:00,41.5,25.2,30.04,NE,55,2.0,9.0,52,0.00,,,0.00,WeatherCatV1.11B39,2013-02-26 01:06:00,
2013-02-25 20:11:00,41.3,25.0,30.04,East,101,2.0,4.0,52,0.00,,,0.00,WeatherCatV1.11B39,2013-02-26 01:11:00,
2013-02-25 20:16:00,41.0,25.6,30.04,South,174,1.0,7.0,54,0.00,,,0.00,WeatherCatV1.11B39,2013-02-26 01:16:00,
2013-02-25 20:21:00,40.8,25.5,30.04,WSW,256,0.0,4.0,54,0.00,,,0.00,WeatherCatV1.11B39,2013-02-26 01:21:00,
2013-02-25 20:26:00,40.7,25.8,30.03,WNW,282,0.0,3.0,55,0.00,,,0.00,WeatherCatV1.11B39,2013-02-26 01:26:00,
2013-02-25 20:31:00,40.6,26.1,30.03,SW,227,3.0,3.0,56,0.00,,,0.00,WeatherCatV1.11B39,2013-02-26 01:31:00,
2013-02-25 20:36:00,40.6,25.7,30.04,SW,219,2.0,5.0,55,0.00,,,0.00,WeatherCatV1.11B39,2013-02-26 01:36:00,
2013-02-25 20:41:00,40.5,25.6,30.04,SW,231,5.0,5.0,55,0.00,,,0.00,WeatherCatV1.11B39,2013-02-26 01:41:00,
2013-02-25 20:46:00,40.4,26.0,30.05,SW,228,0.0,3.0,56,0.00,,,0.00,WeatherCatV1.11B39,2013-02-26 01:46:00,
2013-02-25 20:51:00,40.3,25.9,30.04,ESE,110,7.0,9.0,56,0.00,,,0.00,WeatherCatV1.11B39,2013-02-26 01:51:00,
2013-02-25 20:56:00,40.2,26.2,30.05,ENE,77,1.0,2.0,57,0.00,,,0.00,WeatherCatV1.11B39,2013-02-26 01:56:00,
2013-02-25 21:01:00,40.1,26.1,30.05,SE,138,0.0,3.0,57,0.00,,,0.00,WeatherCatV1.11B39,2013-02-26 02:01:00,
2013-02-25 21:06:00,40.0,26.0,30.04,SW,226,0.0,6.0,57,0.00,,,0.00,WeatherCatV1.11B39,2013-02-26 02:06:00,
2013-02-25 21:11:00,39.9,25.9,30.04,SSE,167,0.0,4.0,57,0.00,,,0.00,WeatherCatV1.11B39,2013-02-26 02:11:00,
2013-02-25 21:16:00,39.9,25.9,30.04,NW,313,0.0,5.0,57,0.00,,,0.00,WeatherCatV1.11B39,2013-02-26 02:16:00,
2013-02-25 21:21:00,39.7,25.7,30.04,NW,309,1.0,1.0,57,0.00,,,0.00,WeatherCatV1.11B39,2013-02-26 02:21:00,
2013-02-25 21:26:00,39.7,26.1,30.05,NNW,329,2.0,4.0,58,0.00,,,0.00,WeatherCatV1.11B39,2013-02-26 02:26:00,
2013-02-25 21:31:00,39.6,26.5,30.06,NW,324,3.0,7.0,59,0.00,,,0.00,WeatherCatV1.11B39,2013-02-26 02:31:00,
2013-02-25 21:36:00,39.6,26.5,30.07,SSW,198,1.0,3.0,59,0.00,,,0.00,WeatherCatV1.11B39,2013-02-26 02:36:00,
2013-02-25 21:41:00,39.5,26.8,30.06,NNW,338,1.0,5.0,60,0.00,,,0.00,WeatherCatV1.11B39,2013-02-26 02:41:00,
2013-02-25 21:46:00,39.3,26.6,30.06,South,179,0.0,4.0,60,0.00,,,0.00,WeatherCatV1.11B39,2013-02-26 02:46:00,
2013-02-25 21:51:00,39.2,26.9,30.06,NE,49,0.0,5.0,61,0.00,,,0.00,WeatherCatV1.11B39,2013-02-26 02:51:00,
2013-02-25 21:56:00,39.0,26.7,30.06,ENE,68,1.0,7.0,61,0.00,,,0.00,WeatherCatV1.11B39,2013-02-26 02:56:00,
2013-02-25 22:01:00,38.9,27.0,30.06,ESE,116,0.0,1.0,62,0.00,,,0.00,WeatherCatV1.11B39,2013-02-26 03:01:00,
2013-02-25 22:06:00,38.8,27.3,30.05,ESE,119,0.0,1.0,63,0.00,,,0.00,WeatherCatV1.11B39,2013-02-26 03:06:00,
2013-02-25 22:11:00,38.7,27.2,30.05,ENE,74,0.0,2.0,63,0.00,,,0.00,WeatherCatV1.11B39,2013-02-26 03:11:00,
2013-02-25 22:16:00,38.5,27.0,30.05,SW,222,1.0,4.0,63,0.00,,,0.00,WeatherCatV1.11B39,2013-02-26 03:16:00,
2013-02-25 22:21:00,38.3,27.2,30.04,WSW,243,4.0,4.0,64,0.00,,,0.00,WeatherCatV1.11B39,2013-02-26 03:21:00,
2013-02-25 22:26:00,38.3,27.2,30.04,ENE,66,0.0,2.0,64,0.00,,,0.00,WeatherCatV1.11B39,2013-02-26 03:26:00,
2013-02-25 22:31:00,38.2,27.5,30.03,SW,236,2.0,2.0,65,0.00,,,0.00,WeatherCatV1.11B39,2013-02-26 03:31:00,
2013-02-25 22:36:00,38.0,27.3,30.02,NE,52,2.0,5.0,65,0.00,,,0.00,WeatherCatV1.11B39,2013-02-26 03:36:00,
2013-02-25 22:41:00,38.0,27.3,30.02,SSW,198,2.0,4.0,65,0.00,,,0.00,WeatherCatV1.11B39,2013-02-26 03:41:00,
2013-02-25 22:46:00,38.0,27.7,30.03,ESE,118,0.0,1.0,66,0.00,,,0.00,WeatherCatV1.11B39,2013-02-26 03:46:00,
2013-02-25 22:51:00,37.9,27.6,30.03,SSW,210,1.0,3.0,66,0.00,,,0.00,WeatherCatV1.11B39,2013-02-26 03:51:00,
2013-02-25 22:56:00,37.8,27.5,30.03,SSE,167,0.0,5.0,66,0.00,,,0.00,WeatherCatV1.11B39,2013-02-26 03:56:00,
2013-02-25 23:01:00,37.6,28.4,30.04,SSE,163,0.0,1.0,69,0.00,,,0.00,WeatherCatV1.11B39,2013-02-26 04:01:00,
2013-02-25 23:06:00,37.6,28.7,30.04,NE,53,3.0,4.0,70,0.00,,,0.00,WeatherCatV1.11B39,2013-02-26 04:06:00,
2013-02-25 23:11:00,37.5,29.0,30.03,West,266,2.0,2.0,71,0.00,,,0.00,WeatherCatV1.11B39,2013-02-26 04:11:00,
2013-02-25 23:16:00,37.5,29.3,30.02,ENE,63,3.0,3.0,72,0.00,,,0.00,WeatherCatV1.11B39,2013-02-26 04:16:00,
2013-02-25 23:21:00,37.4,29.5,30.02,West,264,0.0,4.0,73,0.00,,,0.00,WeatherCatV1.11B39,2013-02-26 04:21:00,
2013-02-25 23:26:00,37.2,29.7,30.03,NE,52,0.0,4.0,74,0.00,,,0.00,WeatherCatV1.11B39,2013-02-26 04:26:00,
2013-02-25 23:31:00,37.1,29.9,30.03,NE,38,2.0,4.0,75,0.00,,,0.00,WeatherCatV1.11B39,2013-02-26 04:31:00,
2013-02-25 23:36:00,36.9,29.7,30.02,WSW,239,4.0,6.0,75,0.00,,,0.00,WeatherCatV1.11B39,2013-02-26 04:36:00,
2013-02-25 23:41:00,36.6,29.8,30.03,SW,214,2.0,7.0,76,0.00,,,0.00,WeatherCatV1.11B39,2013-02-26 04:41:00,
2013-02-25 23:46:00,36.5,29.7,30.02,SE,134,0.0,3.0,76,0.00,,,0.00,WeatherCatV1.11B39,2013-02-26 04:46:00,
2013-02-25 23:51:00,36.6,29.8,30.03,SSE,156,0.0,0.0,76,0.00,,,0.00,WeatherCatV1.11B39,2013-02-26 04:51:00,
2013-02-25 23:56:00,36.5,29.7,30.02,ENE,75,0.0,4.0,76,0.00,,,0.00,WeatherCatV1.11B39,2013-02-26 04:56:00,